IUS R/B(1), 26882

Orbit data source: Space-Track

IUS R/B(1), 26882 is space debris in HEO originally from a launch on Mon, 06 Aug 2001 UTC launched from the Air Force Eastern Test Range (AFETR). Debris objects in space refer to the collection of defunct objects orbiting the Earth. Examples of debris include non-operational satellites, rocket bodies, and fragments generated from explosions, collisions, or faulty payload assembly.

Loading next visibility...
Identifier
26882, 2001-033C
Orbit
HEO
Country
Flag of USUS
Related business
Manufacturer
PW CSD
Mission
Spacecraft
Bus & Motor
ORBUS 21, ORBUS 21
Mass
1,164 kg wet, 1,164 kg dry
Launch date (UTC)
2001-08-06 (25 years ago)
Launch vehicle
Unknown
Launch site
Air Force Eastern Test Range (AFETR)
Object type
Payload
Rocket body
Debris
Shape & HBR
Cyl, 2.1 m
Radar Cross Section
8.491 m², Large (>1 m²)

Expand to show TLE details & history
Last TLE update: 2 days ago

TLE from 2 days ago
0 IUS R/B(1)
1 26882U 01033C   26261.97053254  .00000387  00000-0  72600-3 0  9991
2 26882  28.4929 326.6728 7069363 335.4905   3.2031  2.51539497 64913
Epoch: 2026-09-18T23:17Z
TLE epoch observation values (Epoch: 2026-09-18T23:17:34.011Z)
Latitude
-0.00006°
Longitude
-20.58732°
Altitude
577.481 km
Speed
9.857 km/s
True Right ascension
21h 46m 45s
True Declination
0° 00' 00"
Sunlit
Object was in full shadow at epoch
Visualization orbit readout
Latitude
Unknown
Longitude
Unknown
Altitude
Unknown
Speed
Unknown
Apparent Right ascension
Unknown
Apparent Declination
Unknown
Sunlit
N/A
Visualization observer readout
Local Sidereal Time
04:42:47
Azimuth
Unknown
Elevation
Unknown
Doppler factor
Unknown
Orbital elements
Apogee altitude
32,611.593 km
Perigee altitude
316.005 km
Semi-major axis
22,841.936 km
Eccentricity
0.70694
Inclination
28.4929°
RAAN
326.6728°
Arg. of periapsis
335.4905°
True anomaly
25.64827°
Mean anomaly
3.2031°
Eccentric anomaly
10.7767°
Mean motion
0.6287 °/min
Orbital period
572.61 mins
BSTAR
0.000726
Loading maneuver chart data...
Computing Atmospheric mass density...
Loading historical data...
Loading historical data...
Loading historical data...
Loading historical data...
Loading historical data...
Loading historical data...
Loading historical data...
Other satellites on launch #33 in the year 2001 (2001-08-06 UTC)

Documentation

Showing up to 5 results
|